When you browse on this site, cookies collect data to enhance your experience and personalize the content and advertising you see.
Visit our Privacy Policy to learn more. By continuing to use the site, you agree to this use of cookies and data.
  • In Schweiz
  • Länderverzeichnis
  • Für 7 Tage
  • Wassertemperatur
  • Satellitenkarten
  • Wetterkarte
  • Widgets
  • user-avatar
    Anmelden

    Stündliche Wetter Manaus

    Heute, 16 Januar, Mittwoch

    Zeit Temperatur Niederschläge Wind Luftdruck Luftfeuchtigkeit
    00:00 +26°C° 0.4 mm 1 m/S 755 mmHg 94%
    01:00 +26°C° 0.4 mm 1 m/S 755 mmHg 95%
    02:00 +26°C° 0 mm 1 m/S 755 mmHg 96%
    03:00 +25°C° 0.3 mm 1 m/S 755 mmHg 97%
    04:00 +25°C° 0.3 mm 1 m/S 755 mmHg 97%
    05:00 +25°C° 0.3 mm 1 m/S 755 mmHg 97%
    06:00 +26°C° 0.4 mm 1 m/S 756 mmHg 96%
    07:00 +26°C° 0.4 mm 1 m/S 756 mmHg 94%
    08:00 +27°C° 0.4 mm 1 m/S 756 mmHg 92%
    09:00 +28°C° 1.3 mm 1 m/S 756 mmHg 88%
    10:00 +29°C° 1.3 mm 2 m/S 757 mmHg 85%
    11:00 +30°C° 1.3 mm 2 m/S 757 mmHg 81%
    12:00 +31°C° 0.5 mm 2 m/S 756 mmHg 76%
    13:00 +32°C° 0.5 mm 2 m/S 755 mmHg 70%
    14:00 +34°C° 0.5 mm 2 m/S 755 mmHg 65%
    15:00 +32°C° 1.8 mm 2 m/S 754 mmHg 73%
    16:00 +30°C° 1.8 mm 1 m/S 754 mmHg 81%
    17:00 +29°C° 1.8 mm 1 m/S 754 mmHg 89%
    18:00 +28°C° 0 mm 1 m/S 754 mmHg 90%
    19:00 +27°C° 0 mm 1 m/S 754 mmHg 92%
    20:00 +25°C° 0 mm 0 m/S 755 mmHg 93%
    21:00 +25°C° 0 mm 0 m/S 755 mmHg 93%
    22:00 +25°C° 0 mm 0 m/S 756 mmHg 94%
    23:00 +25°C° 0 mm 0 m/S 756 mmHg 94%

    Morgen, 17 Januar, Donnerstag

    Zeit Temperatur Niederschläge Wind Luftdruck Luftfeuchtigkeit
    00:00 +24°C° 0 mm 0 m/S 756 mmHg 95%
    01:00 +24°C° 0 mm 0 m/S 755 mmHg 96%
    02:00 +24°C° 0 mm 0 m/S 755 mmHg 97%
    03:00 +24°C° 0 mm 0 m/S 755 mmHg 97%
    04:00 +24°C° 0 mm 0 m/S 755 mmHg 97%
    05:00 +23°C° 0 mm 0 m/S 755 mmHg 97%
    06:00 +26°C° 0.4 mm 1 m/S 755 mmHg 94%
    07:00 +27°C° 0.4 mm 1 m/S 756 mmHg 91%
    08:00 +28°C° 0.4 mm 1 m/S 756 mmHg 88%
    09:00 +29°C° 0.4 mm 2 m/S 756 mmHg 83%
    10:00 +30°C° 0.4 mm 2 m/S 756 mmHg 78%
    11:00 +31°C° 0.4 mm 2 m/S 756 mmHg 73%
    12:00 +32°C° 0.2 mm 2 m/S 756 mmHg 69%
    13:00 +34°C° 0.2 mm 2 m/S 755 mmHg 64%
    14:00 +35°C° 0.2 mm 2 m/S 754 mmHg 60%
    15:00 +33°C° 1.7 mm 1 m/S 754 mmHg 68%
    16:00 +32°C° 1.7 mm 1 m/S 753 mmHg 76%
    17:00 +29°C° 1.7 mm 0 m/S 753 mmHg 84%
    18:00 +27°C° 0.1 mm 0 m/S 753 mmHg 87%
    19:00 +26°C° 0.1 mm 0 m/S 754 mmHg 89%
    20:00 +25°C° 0.1 mm 0 m/S 754 mmHg 92%
    21:00 +25°C° 0.7 mm 0 m/S 755 mmHg 93%
    22:00 +25°C° 0.7 mm 0 m/S 755 mmHg 94%
    23:00 +25°C° 0.7 mm 0 m/S 756 mmHg 94%

    übermorgen, 18 Januar, Freitag

    Zeit Temperatur Niederschläge Wind Luftdruck Luftfeuchtigkeit
    00:00 +24°C° 1.3 mm 0 m/S 755 mmHg 95%
    01:00 +24°C° 1.3 mm 0 m/S 754 mmHg 95%
    02:00 +24°C° 1.3 mm 0 m/S 754 mmHg 96%
    03:00 +24°C° 0.7 mm 0 m/S 754 mmHg 96%
    04:00 +24°C° 0.7 mm 0 m/S 754 mmHg 96%
    05:00 +23°C° 0.7 mm 0 m/S 754 mmHg 96%
    06:00 +24°C° 2.1 mm 0 m/S 754 mmHg 95%
    07:00 +27°C° 2.1 mm 1 m/S 755 mmHg 93%
    08:00 +27°C° 2.1 mm 1 m/S 756 mmHg 92%
    09:00 +28°C° 0.9 mm 1 m/S 756 mmHg 89%
    10:00 +29°C° 0.9 mm 2 m/S 756 mmHg 86%
    11:00 +30°C° 0.9 mm 2 m/S 756 mmHg 84%
    12:00 +31°C° 0.6 mm 2 m/S 755 mmHg 80%
    13:00 +31°C° 0.6 mm 2 m/S 754 mmHg 76%
    14:00 +32°C° 0.6 mm 2 m/S 753 mmHg 72%
    15:00 +32°C° 0.2 mm 1 m/S 752 mmHg 71%
    16:00 +32°C° 0.2 mm 1 m/S 752 mmHg 71%
    17:00 +32°C° 0.2 mm 1 m/S 752 mmHg 70%
    18:00 +30°C° 3.5 mm 1 m/S 753 mmHg 78%
    19:00 +28°C° 3.5 mm 1 m/S 753 mmHg 86%
    20:00 +27°C° 3.5 mm 1 m/S 754 mmHg 94%
    21:00 +27°C° 1 mm 1 m/S 754 mmHg 95%
    22:00 +24°C° 1 mm 0 m/S 755 mmHg 95%
    23:00 +24°C° 1 mm 0 m/S 755 mmHg 95%

    19 Januar, Samstag

    Zeit Temperatur Niederschläge Wind Luftdruck Luftfeuchtigkeit
    00:00 +24°C° 0.4 mm 0 m/S 755 mmHg 96%
    01:00 +24°C° 0.4 mm 0 m/S 754 mmHg 96%
    02:00 +24°C° 0.4 mm 0 m/S 754 mmHg 96%
    03:00 +24°C° 0.1 mm 0 m/S 754 mmHg 96%
    04:00 +24°C° 0.1 mm 0 m/S 754 mmHg 96%
    05:00 +24°C° 0.1 mm 0 m/S 754 mmHg 96%
    06:00 +24°C° 0.2 mm 0 m/S 754 mmHg 95%
    07:00 +25°C° 0.2 mm 0 m/S 755 mmHg 93%
    08:00 +26°C° 0.2 mm 0 m/S 756 mmHg 91%
    09:00 +27°C° 1.5 mm 0 m/S 756 mmHg 89%
    10:00 +29°C° 1.5 mm 1 m/S 756 mmHg 86%
    11:00 +30°C° 1.5 mm 1 m/S 755 mmHg 83%
    12:00 +31°C° 0.8 mm 1 m/S 755 mmHg 79%
    13:00 +31°C° 0.8 mm 1 m/S 754 mmHg 75%
    14:00 +32°C° 0.8 mm 1 m/S 753 mmHg 71%
    15:00 +31°C° 1.7 mm 1 m/S 752 mmHg 77%
    16:00 +30°C° 1.7 mm 1 m/S 752 mmHg 83%
    17:00 +30°C° 1.7 mm 1 m/S 752 mmHg 89%
    18:00 +27°C° 0.9 mm 0 m/S 752 mmHg 90%
    19:00 +26°C° 0.9 mm 0 m/S 753 mmHg 92%
    20:00 +25°C° 0.9 mm 0 m/S 754 mmHg 93%
    21:00 +25°C° 1.5 mm 0 m/S 754 mmHg 93%
    22:00 +26°C° 1.5 mm 1 m/S 755 mmHg 93%
    23:00 +26°C° 1.5 mm 1 m/S 755 mmHg 94%

    20 Januar, Sonntag

    Zeit Temperatur Niederschläge Wind Luftdruck Luftfeuchtigkeit
    00:00 +26°C° 0.3 mm 1 m/S 755 mmHg 94%
    01:00 +26°C° 0.3 mm 1 m/S 754 mmHg 95%
    02:00 +26°C° 0.3 mm 1 m/S 754 mmHg 96%
    03:00 +24°C° 0.2 mm 0 m/S 754 mmHg 96%
    04:00 +24°C° 0.2 mm 0 m/S 754 mmHg 96%
    05:00 +23°C° 0.2 mm 0 m/S 754 mmHg 96%
    06:00 +24°C° 0.5 mm 0 m/S 755 mmHg 96%
    07:00 +26°C° 0.5 mm 1 m/S 755 mmHg 95%
    08:00 +27°C° 0.5 mm 1 m/S 756 mmHg 95%
    09:00 +27°C° 1.5 mm 1 m/S 756 mmHg 92%
    10:00 +28°C° 1.5 mm 1 m/S 756 mmHg 89%
    11:00 +29°C° 1.5 mm 1 m/S 756 mmHg 86%
    12:00 +30°C° 2.1 mm 1 m/S 755 mmHg 86%
    13:00 +30°C° 2.1 mm 1 m/S 754 mmHg 85%
    14:00 +30°C° 2.1 mm 1 m/S 754 mmHg 85%
    15:00 +29°C° 3.2 mm 1 m/S 753 mmHg 88%
    16:00 +28°C° 3.2 mm 1 m/S 753 mmHg 91%
    17:00 +27°C° 3.2 mm 1 m/S 753 mmHg 94%
    18:00 +27°C° 0.4 mm 1 m/S 753 mmHg 95%
    19:00 +26°C° 0.4 mm 1 m/S 754 mmHg 96%
    20:00 +26°C° 0.4 mm 1 m/S 754 mmHg 96%
    21:00 +26°C° 0.1 mm 1 m/S 755 mmHg 96%
    22:00 +24°C° 0.1 mm 0 m/S 755 mmHg 96%
    23:00 +24°C° 0.1 mm 0 m/S 755 mmHg 97%

    21 Januar, Montag

    Zeit Temperatur Niederschläge Wind Luftdruck Luftfeuchtigkeit
    00:00 +23°C° 0.1 mm 0 m/S 755 mmHg 97%
    01:00 +23°C° 0.1 mm 0 m/S 754 mmHg 97%
    02:00 +23°C° 0.1 mm 0 m/S 754 mmHg 98%
    03:00 +23°C° 0.6 mm 0 m/S 754 mmHg 97%
    04:00 +23°C° 0.6 mm 0 m/S 754 mmHg 97%
    05:00 +23°C° 0.6 mm 0 m/S 754 mmHg 96%
    06:00 +24°C° 0.8 mm 0 m/S 754 mmHg 95%
    07:00 +27°C° 0.8 mm 1 m/S 755 mmHg 94%
    08:00 +27°C° 0.8 mm 1 m/S 756 mmHg 93%
    09:00 +28°C° 1.2 mm 1 m/S 756 mmHg 90%
    10:00 +29°C° 1.2 mm 1 m/S 755 mmHg 87%
    11:00 +30°C° 1.2 mm 1 m/S 755 mmHg 85%
    12:00 +30°C° 0.9 mm 1 m/S 755 mmHg 81%
    13:00 +31°C° 0.9 mm 1 m/S 754 mmHg 77%
    14:00 +31°C° 0.9 mm 1 m/S 753 mmHg 74%
    15:00 +31°C° 0.1 mm 1 m/S 753 mmHg 74%
    16:00 +29°C° 0.1 mm 0 m/S 752 mmHg 73%
    17:00 +29°C° 0.1 mm 0 m/S 752 mmHg 73%
    18:00 +30°C° 3.1 mm 1 m/S 753 mmHg 80%
    19:00 +28°C° 3.1 mm 1 m/S 753 mmHg 87%
    20:00 +27°C° 3.1 mm 1 m/S 754 mmHg 94%
    21:00 +27°C° 0.5 mm 1 m/S 754 mmHg 94%
    22:00 +26°C° 0.5 mm 1 m/S 755 mmHg 95%
    23:00 +24°C° 0.5 mm 0 m/S 755 mmHg 96%
    Mehr zeigen